Regional Weather Roundup
Issued by NWS

Home | Current Version | Previous Version | Text Only | Print | Product List | Glossary On
Versions: 1 2 3 4 5 6 7 8 9 10 11 12 13 14 15 16 17 18 19 20 21 22 23 24 25 26 27 28 29 30 31 32 33 34 35 36 37 38 39 40 41 42 43 44 45 46 47 48 49 50
000
ASUS43 KLSX 211207
RWRMO

WEATHER SUMMARY FOR MISSOURI
NATIONAL WEATHER SERVICE SPRINGFIELD MO
700 AM CDT SUN SEP 21 2014

NOTE: "FAIR" INDICATES FEW OR NO CLOUDS BELOW 12,000 FEET WITH NO
       SIGNIFICANT WEATHER AND/OR OBSTRUCTIONS TO VISIBILITY.
       CURRENT SKY AND/OR WEATHER CONDITIONS ARE NOT AVAILABLE FOR
       CHILLICOTHE AND FARMINGTON.

MOZ001>031-035>038-043-044-053-054-211300-
...NORTHERN AND WESTERN MISSOURI...

CITY           SKY/WX    TMP DP  RH WIND       PRES   REMARKS
KANSAS CTY INT CLEAR     57  52  83 W7        30.12R
6HR MIN TEMP:  53; 6HR MAX TEMP:  70;

KANSAS C DTWN  CLEAR     60  52  74 NW3       30.11R
6HR MIN TEMP:  60; 6HR MAX TEMP:  71;

LEE`S SUMMIT   CLEAR     55  50  83 SW5       30.12R
6HR MIN TEMP:  55; 6HR MAX TEMP:  69;

ST JOSEPH      CLEAR     52  50  93 CALM      30.13R
6HR MIN TEMP:  48; 6HR MAX TEMP:  70;

CHILLICOTHE      N/A     55  50  83 CALM      30.09R
6HR MIN TEMP:  52; 6HR MAX TEMP:  72;

KIRKSVILLE     CLEAR     53  49  86 W6        30.05R
6HR MIN TEMP:  52; 6HR MAX TEMP:  70;


$$
MOZ066>068-077>081-088>096-101>105-211300-
...SOUTHWEST MISSOURI...

CITY           SKY/WX    TMP DP  RH WIND       PRES   REMARKS
SPRINGFIELD    CLEAR     70  67  90 NW8       30.06R
6HR MIN TEMP:  69; 6HR MAX TEMP:  73; 6HR PCP:  0.01;

JOPLIN         CLOUDY    70  68  93 N9        30.09R
6HR MIN TEMP:  69; 6HR MAX TEMP:  75; 6HR PCP:  0.01;


$$
MOZ032>034-039>042-045>050-055>058-069>072-211300-
...CENTRAL MISSOURI...

CITY           SKY/WX    TMP DP  RH WIND       PRES   REMARKS
COLUMBIA       CLEAR     58  53  84 NW6       30.07R
6HR MIN TEMP:  57; 6HR MAX TEMP:  74;

JEFFERSON CITY CLEAR     63  54  72 NW3       30.06R
6HR MIN TEMP:  63; 6HR MAX TEMP:  75;

ROLLA          CLEAR     63  56  78 N14       30.03R
6HR MIN TEMP:  63; 6HR MAX TEMP:  72; 6HR PCP:  0.01;

SEDALIA        CLEAR     58  50  75 NW5       30.09R
6HR MIN TEMP:  58; 6HR MAX TEMP:  74;

WHITEMAN AFB   CLEAR     57  52  84 N3        30.09R
OSAGE BEACH    CLEAR     64  54  68 N9        30.07R

$$
MOZ051-052-059>065-211300-
...EAST CENTRAL MISSOURI...

CITY           SKY/WX    TMP DP  RH WIND       PRES   REMARKS
ST LOUIS INTL  PTCLDY    65  54  67 NW9       30.01R
6HR MIN TEMP:  65; 6HR MAX TEMP:  77;

SPIRIT OF STL  CLEAR     65  54  67 N7        30.01R
6HR MIN TEMP:  64; 6HR MAX TEMP:  75; 6HR PCP:  0.07;

ST CHARLES     CLEAR     63  54  72 NW7       30.00R
6HR MIN TEMP:  63; 6HR MAX TEMP:  75; 6HR PCP:  0.01;


$$
MOZ072>076-082>087-097>100-106>115-211300-
...SOUTH CENTRAL AND SOUTHEAST MISSOURI...

CITY           SKY/WX    TMP DP  RH WIND       PRES   REMARKS
CAPE GIRARDEAU MOCLDY    68  66  93 W6        29.95R
6HR MIN TEMP:  64; 6HR MAX TEMP:  72; 6HR PCP: TRACE;

FARMINGTON     PTCLDY    70  66  88 NW8       30.00R
6HR MIN TEMP:  70; 6HR MAX TEMP:  73; 6HR PCP:  0.03;

POPLAR BLUFF   CLOUDY    69  65  86 SW3       29.96R
6HR MIN TEMP:  67; 6HR MAX TEMP:  71; 6HR PCP: TRACE;

WEST PLAINS    CLOUDY    69  66  90 W7        30.03S
6HR MIN TEMP:  68; 6HR MAX TEMP:  70; 6HR PCP:  0.08;


$$



USA.gov is the U.S. government's official web portal to all federal, state and local government web resources and services.